Location: ?????????
(44.2517°N, 135.2292°E)
Time: 03:48:03
(UTC+00:00)

USA 59 Rocket - Pass Details

Date: 19 May 2025
Orbit: 373 x 1696 km, 63.3° (Epoch: 15 June)

Event Time Altitude Azimuth Distance (km) Brightness Sun altitude
Exits shadow 15:06:39 13° 309° (NW) 1,273 2.1 -25.8°
Maximum altitude 15:07:11 14° 320° (NW) 1,239 2.2 -25.8°
Drops below altitude 10° 15:08:47 10° 353° (N) 1,400 2.9 -25.8°
Sets 15:11:31 0° 23° (NNE) 2,247 4.1 -25.7°
